Miscellaneous Local Product
Issued by NWS Hastings, NE

Home | Current Version | Previous Version | Graphics & Text | Print | Product List | Glossary On
Versions: 1 2 3 4 5 6 7 8 9 10 11 12 13 14 15 16 17 18 19 20 21 22 23 24 25 26 27 28 29 30 31 32 33 34 35 36 37 38 39 40 41 42 43 44 45 46 47 48 49 50
000
AXUS43 KGID 271802
MISGRI

GID CWA HOURLY WEATHER ROUNDUP
NATIONAL WEATHER SERVICE HASTINGS NE
100 PM CDT TUE JUN 27 2017

NOTE: "FAIR" INDICATES FEW OR NO CLOUDS BELOW 12,000 FEET WITH NO
SIGNIFICANT WEATHER AND/OR OBSTRUCTIONS TO VISIBILITY.

...SOUTH CENTRAL NEBRASKA...

CITY           SKY/WX    TMP DP  RH WIND       PRES   REMARKS
GRAND ISLAND   MOSUNNY   77  63  61 SE22G30   29.94F
HASTINGS       PTSUNNY   78  62  57 S13       29.94F
KEARNEY        CLOUDY    77  63  61 S21       29.92F
ORD            SUNNY     78  57  48 SE18G28   29.88F
YORK           SUNNY     75  61  60 S18G24    29.95F
AURORA         SUNNY     77  60  56 S20G26    29.94F
LEXINGTON      CLOUDY    75  63  65 S18G24    29.90F
HOLDREGE       CLOUDY    75  62  64 S18G25    29.90F
HEBRON         MOSUNNY   80  64  58 SE18G24   29.95F

...NEBRASKA PANHANDLE...

CITY           SKY/WX    TMP DP  RH WIND       PRES   REMARKS
CHADRON        CLOUDY    86  55  34 SW14G24   29.71S
ALLIANCE       SUNNY     82  56  40 S23G29    29.79F
SCOTTSBLUFF    CLOUDY    88  54  31 S6        29.78R
SIDNEY         SUNNY     82  57  42 S16G24    29.86F

...WESTERN AND NORTH CENTRAL NEBRASKA...

CITY           SKY/WX    TMP DP  RH WIND       PRES   REMARKS
VALENTINE      SUNNY     83  56  39 S24G38    29.77F
AINSWORTH      MOSUNNY   78  59  53 S25G33    29.83F
ONEILL         SUNNY     79  55  44 S23       29.88F
BROKEN BOW     CLOUDY    79  61  53 SE23G30   29.89F
IMPERIAL       SUNNY     80  58  46 SE17      29.85F
NORTH PLATTE   CLOUDY    69  62  78 SE15      29.87F
MCCOOK         CLOUDY    72  64  76 SE15      29.89F

...EASTERN NEBRASKA...

CITY           SKY/WX    TMP DP  RH WIND       PRES   REMARKS
NORFOLK        SUNNY     76  53  44 S22G31    29.93F
SO SIOUX CITY  SUNNY     76  53  44 S17G26    29.97F
TEKAMAH        SUNNY     78  52  40 SE15G25   29.98F
COLUMBUS       SUNNY     76  58  53 SE15      29.96F
ALBION         SUNNY     77  57  49 S18G28    29.93F
OMAHA EPPLEY   PTSUNNY   77  58  51 S21G26    30.00F
OFFUTT AFB     SUNNY     76  58  54 SE17G24   30.00F
MILLARD        MOSUNNY   76  62  60 SE17G23   29.99F
LINCOLN        SUNNY     77  61  57 SE17      29.98F
NEBRASKA CITY  MOSUNNY   74  63  69 SE12G18   30.01F
BEATRICE       PTSUNNY   76  63  64 S14G22    29.98F
FALLS CITY     MOSUNNY   76  62  62 S16G24    30.02F

...NORTHERN KANSAS...

CITY           SKY/WX    TMP DP  RH WIND       PRES   REMARKS
GOODLAND       SUNNY     80  64  58 S18       29.89F
HILL CITY      SUNNY     84  68  58 SE13G23   29.89F
NORTON         CLOUDY    73  61  64 SE17      29.90F
PHILLIPSBURG   PTSUNNY   82  63  51 SE15G24   29.91F
SMITH CENTER   PTSUNNY   81  63  54 SE15G23   29.93F
HAYS           SUNNY     89  63  41 S17G24    29.89F HX  90
RUSSELL        SUNNY     88  66  48 S23G29    29.90F HX  90
CONCORDIA      SUNNY     80  66  62 S21G26    29.94F
SALINA         MOSUNNY   86  69  56 S18G26    29.94F HX  90
TOPEKA         PTSUNNY   77  66  68 SE13      30.01F



USA.gov is the U.S. government's official web portal to all federal, state and local government web resources and services.